TimePST,TemperatureF,Dew PointF,Humidity,Sea Level PressureIn,VisibilityMPH,Wind Direction,Wind SpeedMPH,Gust SpeedMPH,PrecipitationIn,Events,Conditions,WindDirDegrees,DateUTC
12:53 AM,42.1,39.9,92,29.73,7.0,Calm,Calm,-,N/A,,Overcast,0,2014-02-28 08:53:00
1:53 AM,42.1,39.9,92,29.72,6.0,Calm,Calm,-,N/A,,Overcast,0,2014-02-28 09:53:00
2:19 AM,41.0,39.0,93,29.70,4.0,Calm,Calm,-,N/A,,Overcast,0,2014-02-28 10:19:00
2:27 AM,41.0,39.9,96,29.70,1.8,Calm,Calm,-,N/A,,Overcast,0,2014-02-28 10:27:00
2:36 AM,41.0,39.9,96,29.70,0.8,Calm,Calm,-,N/A,,Overcast,0,2014-02-28 10:36:00
2:53 AM,41.0,39.9,96,29.69,0.5,ESE,3.5,-,N/A,Fog,Fog,120,2014-02-28 10:53:00
3:53 AM,39.9,39.0,97,29.68,0.5,ESE,3.5,-,N/A,Fog,Fog,110,2014-02-28 11:53:00
4:35 AM,41.0,39.9,96,29.66,1.5,ESE,3.5,-,N/A,,Overcast,120,2014-02-28 12:35:00
4:41 AM,41.0,39.0,93,29.65,3.0,East,3.5,-,N/A,,Overcast,100,2014-02-28 12:41:00
4:53 AM,39.9,39.0,97,29.66,7.0,ESE,4.6,-,N/A,,Overcast,120,2014-02-28 12:53:00
5:53 AM,39.9,39.0,97,29.64,9.0,Calm,Calm,-,N/A,,Overcast,0,2014-02-28 13:53:00
6:53 AM,39.9,39.0,97,29.62,4.0,Calm,Calm,-,N/A,,Overcast,0,2014-02-28 14:53:00
6:56 AM,39.9,39.0,97,29.61,1.8,Calm,Calm,-,N/A,,Overcast,0,2014-02-28 14:56:00
7:00 AM,39.9,39.0,97,29.61,0.8,Calm,Calm,-,N/A,,Overcast,0,2014-02-28 15:00:00
7:24 AM,39.9,39.0,97,29.59,0.2,Calm,Calm,-,N/A,Fog,Fog,0,2014-02-28 15:24:00
7:53 AM,41.0,39.9,96,29.59,0.2,NW,3.5,-,N/A,Fog,Fog,320,2014-02-28 15:53:00
8:02 AM,41.0,39.9,96,29.58,0.5,NW,3.5,-,N/A,Fog,Fog,310,2014-02-28 16:02:00
8:21 AM,41.0,39.9,96,29.58,1.5,NW,3.5,-,N/A,,Overcast,320,2014-02-28 16:21:00
8:25 AM,41.0,39.9,96,29.58,3.0,Calm,Calm,-,N/A,,Overcast,0,2014-02-28 16:25:00
8:35 AM,41.0,39.9,96,29.58,2.5,Calm,Calm,-,N/A,,Overcast,0,2014-02-28 16:35:00
8:42 AM,41.0,39.9,96,29.58,4.0,WNW,3.5,-,N/A,,Overcast,290,2014-02-28 16:42:00
8:53 AM,41.0,39.9,96,29.57,5.0,WNW,3.5,-,N/A,,Overcast,290,2014-02-28 16:53:00
9:53 AM,42.1,39.9,92,29.57,10.0,NW,5.8,-,N/A,,Overcast,320,2014-02-28 17:53:00
10:13 AM,43.0,41.0,93,29.56,10.0,WNW,4.6,-,N/A,,Overcast,300,2014-02-28 18:13:00
10:32 AM,44.1,41.0,89,29.56,10.0,WNW,6.9,-,N/A,,Overcast,300,2014-02-28 18:32:00
10:53 AM,45.0,42.1,90,29.55,10.0,West,6.9,-,N/A,,Mostly Cloudy,270,2014-02-28 18:53:00
11:05 AM,45.0,43.0,93,29.54,10.0,WNW,8.1,-,N/A,,Scattered Clouds,300,2014-02-28 19:05:00
11:53 AM,51.1,42.1,71,29.52,10.0,Calm,Calm,-,N/A,,Clear,0,2014-02-28 19:53:00
12:53 PM,57.9,39.0,49,29.49,10.0,ESE,16.1,26.5,N/A,,Clear,110,2014-02-28 20:53:00
1:53 PM,57.9,37.9,47,29.48,10.0,East,13.8,-,N/A,,Clear,90,2014-02-28 21:53:00
2:53 PM,59.0,37.0,44,29.46,10.0,East,16.1,20.7,N/A,,Clear,90,2014-02-28 22:53:00
3:53 PM,57.9,37.0,46,29.44,10.0,ESE,16.1,24.2,N/A,,Clear,120,2014-02-28 23:53:00
4:53 PM,55.9,36.0,47,29.44,10.0,East,13.8,19.6,N/A,,Clear,90,2014-03-01 00:53:00
5:53 PM,53.1,35.1,50,29.45,10.0,East,10.4,-,N/A,,Clear,100,2014-03-01 01:53:00
6:53 PM,50.0,35.1,57,29.46,10.0,ESE,8.1,-,N/A,,Clear,120,2014-03-01 02:53:00
7:53 PM,48.9,34.0,56,29.46,10.0,SE,5.8,-,N/A,,Clear,130,2014-03-01 03:53:00
8:53 PM,48.0,34.0,58,29.48,10.0,ESE,5.8,-,N/A,,Clear,120,2014-03-01 04:53:00
9:53 PM,46.9,34.0,61,29.50,10.0,Calm,Calm,-,N/A,,Mostly Cloudy,0,2014-03-01 05:53:00
10:53 PM,46.9,34.0,61,29.50,10.0,Calm,Calm,-,N/A,,Overcast,0,2014-03-01 06:53:00
11:53 PM,43.0,36.0,76,29.51,10.0,Calm,Calm,-,N/A,,Overcast,0,2014-03-01 07:53:00